This is the latest recevied weather packets stored in our database for station/object YC2UTR-2. If no packets are shown the sender has not sent any weather packets the latest 10 day(s).
| Time | Temp. | Humidity | Pressure | Rain* | Wind** | Luminosity | Snow |
|---|---|---|---|---|---|---|---|
| 1787633710 | 31.67° C | 48% | 1016.4 hPa | - | - | - | - |
| 1787633410 | 31.67° C | 48% | 1016.5 hPa | - | - | - | - |
| 1787633110 | 31.11° C | 49% | 1016.6 hPa | - | - | - | - |
| 1787632810 | 31.11° C | 50% | 1016.8 hPa | - | - | - | - |
| 1787632510 | 31.11° C | 50% | 1016.8 hPa | - | - | - | - |
| 1787632210 | 31.67° C | 49% | 1016.9 hPa | - | - | - | - |
| 1787631910 | 31.67° C | 50% | 1016.9 hPa | - | - | - | - |
| 1787631610 | 30.56° C | 52% | 1017.2 hPa | - | - | - | - |
| 1787631310 | 30.56° C | 52% | 1017.3 hPa | - | - | - | - |
| 1787631010 | 31.11° C | 51% | 1017.4 hPa | - | - | - | - |
| 1787630710 | 30.56° C | 53% | 1017.5 hPa | - | - | - | - |
| 1787630410 | 30.56° C | 53% | 1017.6 hPa | - | - | - | - |
| 1787630110 | 29.44° C | 55% | 1017.8 hPa | - | - | - | - |
| 1787629810 | 30° C | 54% | 1017.8 hPa | - | - | - | - |
| 1787629510 | 30° C | 53% | 1017.9 hPa | - | - | - | - |
| 1787629210 | 30.56° C | 52% | 1018 hPa | - | - | - | - |
| 1787628910 | 30° C | 53% | 1018.1 hPa | - | - | - | - |
| 1787628610 | 30° C | 54% | 1018.2 hPa | - | - | - | - |
| 1787628310 | 30° C | 54% | 1018.4 hPa | - | - | - | - |
| 1787628010 | 29.44° C | 54% | 1018.4 hPa | - | - | - | - |
| 1787627710 | 29.44° C | 55% | 1018.6 hPa | - | - | - | - |
| 1787627410 | 29.44° C | 55% | 1018.6 hPa | - | - | - | - |
| 1787627110 | 29.44° C | 56% | 1018.7 hPa | - | - | - | - |
| 1787626810 | 28.89° C | 57% | 1018.8 hPa | - | - | - | - |
| 1787626510 | 28.89° C | 57% | 1018.9 hPa | - | - | - | - |
* Rain since midnight (hover to see other rain measurements)
** Current wind speed in m/s (hover to see current wind gust speed)